カタログに戻る

USA 89 R/B

運用中HEO
NORAD 22519·ROCKET BODY·🇺🇸 United States

打ち上げ Dec 2, 1992 から Cape Canaveral Space Force Station

Loading…

次のパス (今後24時間)

TLE

古いSource: Mike McCants

元期: Jun 26, 2026, 21:40 UTC

1 22519U 92086C   26177.90347053 0.00001785  00000-0  23743-3 0    04
2 22519  56.9204  90.8468 3006852 252.8513 107.0719  9.20203909    01

AllMySatでUSA 89 R/Bをリアルタイム追跡

Download on the App Store